Simultaneous Nadir Overpasses (SNOs) Predictions

Prediction of SNOs between GOES-14 and AQUA Satellite Orbit:

Table of predicted SNOs for the next 14.0 days since TLE Epoch: 5/8/2021
Index Date Time (GOES-14) GOES-14 Lat,Lon AQUA Lat,Lon Distance(km) Time Diff (sec)
1 05/09/2021 20:23:48 -0.14,-104.32 0.26,-102.46 211.65 80
2 05/10/2021 08:45:03 0.13,-104.18 0.85,-107.61 389.73 80
3 05/12/2021 08:32:52 0.13,-104.18 0.21,-104.66 53.67 80
4 05/14/2021 08:23:21 0.13,-104.18 -0.43,-101.71 282.10 80
5 05/14/2021 20:44:46 -0.11,-104.33 -0.64,-106.91 292.74 80
6 05/16/2021 20:29:54 -0.12,-104.32 -0.05,-103.94 42.63 80
7 05/18/2021 20:17:43 -0.13,-104.31 0.60,-100.99 378.07 80
8 05/19/2021 08:38:57 0.11,-104.15 0.52,-106.14 225.92 80
9 05/21/2021 08:29:25 0.11,-104.15 -0.07,-103.18 109.87 80
10 05/21/2021 20:50:50 -0.09,-104.32 -0.98,-108.38 462.40 80
